AirNav   Everest Fuels
 
 1444 users online  

0L7 Jean Airport
Jean, Nevada, USA

GOING TO JEAN?


FAA INFORMATION EFFECTIVE 10 SEPTEMBER 2020

Location

FAA Identifier: 0L7
Lat/Long: 35-46-05.7517N 115-19-46.6391W
35-46.095862N 115-19.777318W
35.7682644,-115.3296220
(estimated)
Elevation: 2835 ft. / 864.1 m (surveyed)
Variation: 14E (1985)
From city: 1 mile S of JEAN, NV
Time zone: UTC -7 (UTC -8 during Standard Time)
Zip code: 89019

Airport Operations

Airport use: Open to the public
Activation date: 03/1943
Control tower: no
ARTCC: LOS ANGELES CENTER
FSS: RENO FLIGHT SERVICE STATION
NOTAMs facility: RNO (NOTAM-D service available)
Attendance: UNATNDD
Pattern altitude: 3635 ft. MSL
Wind indicator: yes
Segmented circle: yes
Lights: ACTVT MIRL RY 02L/20R - CTAF.
Beacon: white-green (lighted land airport)
Operates sunset to sunrise.

Airport Communications

CTAF: 122.9
WX AWOS-3PT at HND (16 nm NE): 120.775 (702-614-4537)

Nearby radio navigation aids

VOR radial/distance  VOR name  Freq  Var
LASr189/20.4LAS VEGAS VORTAC116.9015E
BLDr224/26.5BOULDER CITY VORTAC116.7015E
GFSr334/39.0GOFFS VORTAC114.4015E

Airport Services

Fuel available: 100LL JET-A
SELF-SERVICE FUEL 24 HRS.
Parking: tiedowns
Airframe service: NONE
Powerplant service: NONE
Bottled oxygen: NONE
Bulk oxygen: NONE

Runway Information

Runway 2L/20R

Dimensions: 4600 x 75 ft. / 1402 x 23 m
Surface: asphalt, in good condition
Weight bearing capacity: 
Single wheel: 12.5
Runway edge lights: medium intensity
RUNWAY 2L  RUNWAY 20R
Latitude: 35-45.801667N35-46.444667N
Longitude: 115-20.035000W115-19.542000W
Elevation: 2816.7 ft.2834.6 ft.
Traffic pattern: leftright
Runway heading: 018 magnetic, 032 true198 magnetic, 212 true
Markings: basic, in good conditionbasic, in good condition
Touchdown point: yes, no lightsyes, no lights
Obstructions: 30 ft. pole, 1230 ft. from runway, 180 ft. left of centerline, 34:1 slope to clear15 ft. road, 830 ft. from runway, 42:1 slope to clear

Runway 2R/20L

Dimensions: 3700 x 60 ft. / 1128 x 18 m
Surface: asphalt, in good condition
Weight bearing capacity: 
Single wheel: 12.5
RUNWAY 2R  RUNWAY 20L
Latitude: 35-45.803333N35-46.320500N
Longitude: 115-19.961667W115-19.565167W
Elevation: 2814.5 ft.2827.9 ft.
Traffic pattern: rightleft
Runway heading: 018 magnetic, 032 true198 magnetic, 212 true
Markings: basic, in good conditionbasic, in good condition
Touchdown point: yes, no lightsyes, no lights
Obstructions: none85 ft. pole, 1940 ft. from runway, 510 ft. left of centerline, 20:1 slope to clear

Airport Ownership and Management from official FAA records

Ownership: Publicly-owned
Owner: CLARK COUNTY
PO BOX 11005 AIRPORT STATION
LAS VEGAS, NV 89111
Phone 702-261-4800
Manager: BRUCE DAUGHERTY
3500 EXECUTIVE TERMINAL DR
HENDERSON, NV 89052
Phone 702-261-4802
OPNS: JUSTIN DI AMBROSIO (702) 261-4851.

Airport Operational Statistics

Aircraft based on the field: 21
Single engine airplanes: 12
Multi engine airplanes: 1
Gliders airplanes: 8
    
Aircraft operations: avg 40/day *
74% transient general aviation
25% local general aviation
<1% air taxi
* for 12-month period ending 30 June 2018

Additional Remarks

GLIDER PARKING E SIDE OF FLD.
FOR CD CTC LAS VEGAS APCH AT 725-200-4432.
POWER ACFT USE TFC PAT WEST OF RWY; MAKE ENTRY FROM WEST.
AEROBATIC ACTIVITIES 2 MILES WEST.
POWER ACFT PARKING W SIDE OF FLD.
EXTENSIVE GLIDER ACTIVITY IN VICINITY UP TO 12,000 FT MSL.
ULTRALIGHT ACTIVITY ON AIRPORT.
SKYDIVING DROP ZONE 4 MILES SOUTH

Instrument Procedures

There are no published instrument procedures at 0L7.

Some nearby airports with instrument procedures:

KHND - Henderson Executive Airport (16 nm NE)
KLAS - Mc Carran International Airport (21 nm NE)
KBVU - Boulder City Municipal Airport (25 nm NE)
KVGT - North Las Vegas Airport (27 nm N)
KLSV - Nellis Air Force Base (32 nm NE)
 
Loc | Ops | Rwys | IFR | FBO | Links
Com | Nav | Svcs | Stats | Notes
Area around 0L7 (Jean Airport)
 
Road maps at: MapQuest Bing Google
 
Aerial photo
WARNING: Photo may not be current or correct
Aerial photo of 0L7 (Jean Airport)
Photo by Jassen Photography
Photo taken 18-Oct-2015
looking south.

Do you have a better or more recent aerial photo of Jean Airport that you would like to share? If so, please send us your photo.

 
Sectional chart

 
Airport distance calculator
Flying to Jean Airport? Find the distance to fly.

From to 0L7

Sunrise and sunset
Times for 18-Sep-2020
 Local
(UTC-7)
 Zulu
(UTC)
Morning civil twilight06:0213:02
Sunrise06:2813:28
Sunset18:4201:42
Evening civil twilight19:0802:08

Current date and time
Zulu (UTC)  18-Sep-2020 14:17:11
Local (UTC-7)  18-Sep-2020 07:17:11
 
METAR
KHND 
16nm NE 
181356Z 21008KT 10SM CLR 25/M05 A3000 RMK AO2 SLP143 T02501050
KLAS 
21nm NE 
181356Z 24003KT 8SM BKN250 26/M02 A2996 RMK AO2 SLP116 HZ AND FU VC ALQDS T02611022
KBVU 
25nm NE 
181355Z AUTO 00000KT 10SM CLR 22/01 A2997 RMK AO2
KVGT 
27nm N 
181353Z 31003KT 10SM CLR 24/00 A2994 RMK AO2 SLP129 T02440000
KLSV 
31nm NE 
181358Z AUTO 00000KT 10SM CLR 23/M04 A2994 RMK AO2 SLP114 T02301042 $
TAF
KHND 
16nm NE 
181120Z 1812/1912 18008KT P6SM BKN250 FM181900 20015G24KT P6SM SCT120 OVC250 FM190200 19011G20KT P6SM SCT130 SCT250 FM190600 19011G20KT P6SM FEW130
NOTAMs
Click for the latest NOTAMs
NOTAMs are issued by the DoD/FAA and will open in a separate window not controlled by AirNav.

 

 
 

FBO, Fuel Providers, and Aircraft Ground Support

  
 Business Name 
 
 Contact 
 
 Services / Description 
 
Fuel Prices
 
Comments
  
Jean Airport 702-261-4802
702-261-4800
[web site]
[email]
Aviation fuel, Aircraft parking (ramp or tiedown), Public telephone, Restrooms

More info about Jean Airport
World Fuel Services
100LL Jet A
SS $4.04 $3.63 
 Updated 16-Sep-2020
 
   3 read write
SS=Self service
Update Fuel Prices
 

Would you like to see your business listed on this page?

 If your business provides an interesting product or service to pilots, flight crews, aircraft, or users of the Jean Airport, you should consider listing it here.  To start the listing process, click on the button below
 
Add a business
 

Other Pages about Jean Airport

www.mccarran.com/ga_jean.asp
 
Update a link
 
Copyright © AirNav, LLC. All rights reserved. Privacy Policy  Contact